Winnerscup USA - trainer

Station: T30 - T Race

Distance: 30 Miles

Release: 16-Apr-2018 08:30

Weather Release:    Arrival: cool / sunny

Wind at Release: 3mph sw     Wind at Arrival: 3mph sw

Temp at Release: °    Temp at Arrival: °

Lofts: 53

Birds: 170

Clocked: 170

Good Luck to Everyone!
Drops Pos Breeder Pigeon Name Color Sex Ent Arrival Speed To Win Eligible AB
1 Champ Camp - IN 0240-AU17-CHMP Iron Mike BB C 1 09:12:15.00 1249.704 00:00:00 Yes
2 Sextons Loft - IA 31781-AU17-AA Mitigator BB C 1 09:12:19.00 1247.735 00:00:04 Yes
3 John Partridge - CA 0629-AU17-PASO Americana RC C 1 09:12:21.00 1246.753 00:00:06 Yes
4 Jack's Loft - CA 36719-AU17-ARPU Mas Arena BC C 1 09:12:22.00 1246.263 00:00:07 Yes
5 Sextons Loft - IA 31777-AU17-AA Possible Witness BC C 2 09:12:24.00 1245.283 00:00:09 Yes
6 P/R Loft - CA 0282-AU17-GSF Mezmerise BB H 1 09:12:25.00 1244.794 00:00:10 Yes
7 Champ Camp - IN 0231-AU17-CHMP NEVER BEFORE BB C 2 09:12:26.00 1244.305 00:00:11 Yes
8 Racing Pigeon Mall - WA 0730-AU17-RPM Opium BB C 1 09:12:28.00 1243.328 00:00:13 Yes
9 Jack's Loft - CA 4393-AU17-FOYS Today's Hero SIL C 2 09:12:33.00 1240.893 00:00:18 Yes
10 A D L Loft - IL 0168-AU17-ADL Maverick BB H 1 09:12:34.00 1240.407 00:00:19 Yes
11 Hi-Cal Connection - CA 0779-AU17-HAWI Mad Max BC C 1 09:12:36.00 1239.437 00:00:21 Yes
12 A B C Loft2 - NY 59750-AU17-ARPU BamBoo BB C 1 09:12:41.00 1237.017 00:00:26 Yes
13 Dream Team - VT 0610-AU17-JCZL Great Rendition BB C 1 09:12:52.00 1231.726 00:00:37 Yes
14 Sienna Loft - NC 36773-AU17-AA American Pied BCP C 1 09:12:54.00 1230.769 00:00:39 Yes
15 Daehn/Miele - FL 0401-AU17-NWFI Super Man BB C 1 09:12:55.00 1230.291 00:00:40 Yes
15 Racing Pigeon Mall - WA 0724-AU17-RPM Bet America BB C 2 09:12:55.00 1230.291 00:00:40 Yes
17 Goshentown Lofts - TN 1777-AU17-NPA Whisper BB H 1 09:12:56.00 1229.814 00:00:41 Yes
18 Walstons Warriors - NC 7410-AU17-GL Dullah Bhati BB C 1 09:12:57.00 1229.336 00:00:42 Yes
19 Hollywood Lou Loft - FL 0067-AU17-LOU Key Witness SMBB C 1 09:12:58.00 1228.860 00:00:43 Yes
20 Sofija Loft - IL 0011-AU17-BEKO Ludacris BBPD C 1 09:13:00.00 1227.907 00:00:45 Yes
20 A D L Sheila - IL 0220-AU17-ADL Silhouette BB H 1 09:13:00.00 1227.907 00:00:45 Yes
20 Prout Loft - CA 28550-AU17-JEDD TABLOID BC C 1 09:13:00.00 1227.907 00:00:45 Yes
20 Larry Lewis - OK 8146-AU17-TRPC No Exemption BC C 1 09:13:00.00 1227.907 00:00:45 Yes
24 P/R Loft - CA 0279-AU17-GSF Desciple BCW C 2 09:13:01.00 1227.431 00:00:46 Yes
25 Sextons Loft - IA 31779-AU17-AA Svetlana BC H 3 09:13:02.00 1226.956 00:00:47 Yes
26 Jack's Loft - CA 4395-AU17-FOYS Chosen Pleasure BBPD H 3 09:13:04.00 1226.006 00:00:49 Yes
27 Bolgar Loft - CA 15841-AU17-FOYS Darejani SLAT H 1 09:13:05.00 1225.532 00:00:50 Yes
28 Bolgar Loft - CA 7625-AU17-FTST NICHOLEYE BB C 2 09:13:07.00 1224.584 00:00:52 Yes
28 Huan Qiu Zhang - NC 1711-AU17-JNC Bit Chain BCW C 1 09:13:07.00 1224.584 00:00:52 Hold
28 Red Ass Ranch - TX 0149-AU17-RAR Blue Diva BB H 1 09:13:07.00 1224.584 00:00:52 Yes
31 Daehn/Miele - FL 3838-AU17-FOYS Bamboozled BB H 2 09:13:08.00 1224.111 00:00:53 Yes
32 John Partridge - CA 0618-AU17-PASO The Aristocrat BC C 2 09:13:10.00 1223.166 00:00:55 Yes
32 Hollywood Lou Loft - FL 0061-AU17-LOU Brilliance BB C 2 09:13:10.00 1223.166 00:00:55 Yes
34 Champ Camp - IN 0224-AU17-CHMP Turning Point BB C 3 09:13:14.00 1221.280 00:00:59 Yes
35 Team Fujitake - HI 13911-AU17-FOYS Blue Hilo BBWF H 1 09:13:15.00 1220.809 00:01:00 Yes
36 Ganus Family Loft - IN 0292-AU17-GFL Planet Icon BC H 1 09:13:17.00 1219.869 00:01:02 Yes
37 Racing Pigeon Mall - WA 0712-AU17-RPM Third Down Charley BC C 3 09:13:18.00 1219.400 00:01:03 Yes
37 Champ Camp - IN 0237-AU17-CHMP Dark Runner SMOK C 4 09:13:18.00 1219.400 00:01:03 Yes
39 G & L Loft - OR 2392-AU17-WPC American Standard BWFP C 1 09:13:19.00 1218.930 00:01:04 Yes
40 Sofija Loft - IL 0067-AU17-BEKO Baš Bi Mi Sjelo Taman BBWF C 2 09:13:22.00 1217.525 00:01:07 Yes
40 Jimmy Zheng Loft - MS 0628-AU17-ZHNG Born Again BC C 1 09:13:22.00 1217.525 00:01:07 Yes
40 Larry Lewis - OK 8155-AU17-TRPC Mind Raker RCPD C 2 09:13:22.00 1217.525 00:01:07 Yes
43 Larry Lewis - OK 8156-AU17-TRPC Clippers Hero BC C 3 09:13:23.00 1217.057 00:01:08 Yes
44 Daehn/Miele - FL 3840-AU17-FOYS Steady Freddie BB C 3 09:13:24.00 1216.590 00:01:09 Yes
45 Larry Lewis - OK 8161-AU17-TRPC Vixen GP H 4 09:13:25.00 1216.123 00:01:10 Yes
46 Racing Pigeon Mall - WA 0713-AU17-RPM Gotta Take Notice BB C 4 09:13:26.00 1215.656 00:01:11 Yes
46 Sextons Loft - IA 31786-AU17-AA Dialed 4 Dollars WHGZ C 4 09:13:26.00 1215.656 00:01:11 Yes
48 Hollywood Lou Loft - FL 0074-AU17-LOU Imposter BWFP C 3 09:13:27.00 1215.190 00:01:12 Yes
49 Red Ass Ranch - TX 0163-AU17-RAR Hulk Hogan's Back SMOK C 2 09:13:28.00 1214.724 00:01:13 Yes
50 Champ Camp - IN 0230-AU17-CHMP Rain Man BB C 5 09:13:30.00 1213.793 00:01:15 Yes
50 A D L Sheila - IL 0225-AU17-ADL Outlaw Josey Wells BCW C 2 09:13:30.00 1213.793 00:01:15 Yes
52 Aurelio Aranda - AZ 42211-AU17-AA Mind Game BB C 1 09:13:31.00 1213.328 00:01:16 Yes
53 Daehn/Miele - FL 0404-AU17-NWFI Litigator Man BB C 4 09:13:32.00 1212.864 00:01:17 Yes
54 Sienna Loft - NC 36820-AU17-AA Baby Doll BC H 2 09:13:33.00 1212.400 00:01:18 Yes
55 Larry Lewis - OK 8151-AU17-TRPC Only Hope BC H 5 09:13:34.00 1211.936 00:01:19 Yes
56 A D L Loft - IL 0192-AU17-ADL Over Achiever BBWF C 2 09:13:37.00 1210.546 00:01:22 Yes
57 Dal-Tex R P C - TX 0448-AU17-DLLS Esmeralda BC H 1 09:13:38.00 1210.084 00:01:23 Yes
58 Tar Syndicate - PA 7974-AU17-TAR Cloud 74 VELV C 1 09:13:39.00 1209.622 00:01:24 Yes
58 Ganus Family Loft - IN 0295-AU17-GFL Delerionn BC H 2 09:13:39.00 1209.622 00:01:24 Yes
60 John Partridge - CA 0623-AU17-PASO Monet BBWF C 3 09:13:41.00 1208.699 00:01:26 Yes
61 Sextons Loft - IA 31766-AU17-AA Adverse Condition BB C 5 09:13:42.00 1208.238 00:01:27 Yes
62 1-Tonyloft - VA 0639-AU17-ZHNG Check me Twice BC C 1 09:13:43.00 1207.777 00:01:28 Yes
63 Bieche-Stevenson - CA 7444-AU17-BIEC Blue Million BBWF C 1 09:13:47.00 1205.938 00:01:32 Yes
64 Sextons Loft - IA 31762-AU17-AA Ladesma BC H 6 09:13:48.00 1205.479 00:01:33 Yes
65 Sarrett Racing Pigeons - TX 7026-AU17-PPH Amarillo Queen BC H 1 09:13:49.00 1205.021 00:01:34 Yes
66 B E T Loft - LA 22500-AU17-AA Hollywood's Top Star BB C 1 09:13:51.00 1204.105 00:01:36 Yes
67 Racing Pigeon Mall - WA 0716-AU17-RPM Phantom Starlight BROZ C 5 09:13:53.00 1203.190 00:01:38 Yes
68 G & L Loft - OR 2394-AU17-WPC Affirmation BB C 2 09:13:55.00 1202.277 00:01:40 Yes
69 Aurelio Aranda - AZ 42210-AU17-AA SHREK BBWF C 2 09:13:57.00 1201.365 00:01:42 Yes
70 Bluestreak - OK 7809-AU17-TRPC Indecent Proposal BL H 1 09:14:05.00 1197.732 00:01:50 Yes
71 Larry Lewis - OK 8158-AU17-TRPC White Matter WHGZ H 6 09:14:06.00 1197.279 00:01:51 Yes
72 Acre Farms - CA 0305-AU17-GENE Blade Runner BB C 1 09:14:08.00 1196.375 00:01:53 Yes
73 Jack's Loft - CA 36716-AU17-ARPU The Magician GR C 4 09:14:17.00 1192.322 00:02:02 Yes
74 Goshentown Lofts - TN 1796-AU17-NPA Dossier 96 BB H 2 09:14:20.00 1190.977 00:02:05 Yes
75 Sofija Loft - IL 0023-AU17-BEKO Muves BB H 3 09:14:23.00 1189.636 00:02:08 Yes
76 Nesneb Racing Loft - AL 17146-AU17-MOB Done That BBWF C 1 09:14:29.00 1186.961 00:02:14 Yes
77 Champ Camp - IN 0225-AU17-CHMP Point Well Taken BB C 6 09:14:32.00 1185.629 00:02:17 Yes
78 A P C Loft - TX 17323-AU17-APC Clever Endeavor BCW C 1 09:14:33.00 1185.185 00:02:18 Yes
78 Ganus Family Loft - IN 0296-AU17-GFL Draft Me Now BC C 3 09:14:33.00 1185.185 00:02:18 Yes
80 John Partridge - CA 0619-AU17-PASO Moon Twister BC H 4 09:14:37.00 1183.414 00:02:22 Yes
81 Daehn/Miele - FL 3837-AU17-FOYS French Braid BB H 5 09:14:38.00 1182.972 00:02:23 Yes
82 A B C Loft2 - NY 11771-AU17-ARPU Etherium BB C 2 09:14:40.00 1182.090 00:02:25 Yes
83 Crescendo Loft - NM 18441-AU17-AA Horizon Echo BB C 1 09:14:41.00 1181.649 00:02:26 Yes
84 Hollywood Lou Loft - FL 0064-AU17-LOU American South BB C 4 09:14:42.00 1181.208 00:02:27 Yes
84 Hollywood Lou Loft - FL 0062-AU17-LOU Midnite Lace BB H 5 09:14:42.00 1181.208 00:02:27 Yes
86 Nesler Boyz - CA 1796-AU17-TCH Front Runner BWFP C 1 09:14:44.00 1180.328 00:02:29 Yes
87 Bolgar Loft - CA 7641-AU17-FTST KID KIEV CP C 3 09:14:45.00 1179.888 00:02:30 Yes
88 Jimmy Zheng Loft - MS 0651-AU17-ZHNG Epanema Dream BBWF H 2 09:14:47.00 1179.010 00:02:32 Yes
89 Johnny's Automotive - CA 32889-AU17-JEDD Blue Diva BB H 1 09:14:49.00 1178.133 00:02:34 Yes
89 Daehn/Miele - FL 3839-AU17-FOYS Melany BB H 6 09:14:49.00 1178.133 00:02:34 Yes
91 Larry Lewis - OK 8163-AU17-TRPC Follow The Money BC C 7 09:14:50.00 1177.695 00:02:35 Yes
92 G & L Loft - OR 2395-AU17-WPC Brick House RC H 3 09:14:52.00 1176.820 00:02:37 Yes
92 Sextons Loft - IA 31771-AU17-AA The Mediator BC C 7 09:14:52.00 1176.820 00:02:37 Yes
94 Daehn/Miele - FL 3836-AU17-FOYS Lasting Impression BB C 7 09:14:55.00 1175.510 00:02:40 Yes
95 Nesler Boyz - CA 1797-AU17-TCH Done It All BC H 2 09:15:00.00 1173.333 00:02:45 Yes
96 Daehn/Miele - FL 3841-AU17-FOYS Sweet Million BC C 8 09:15:14.00 1167.281 00:02:59 Yes
96 Nesneb Racing Loft - AL 17134-AU17-MOB Widowed BC H 2 09:15:14.00 1167.281 00:02:59 Yes
98 Huan Qiu Zhang - NC 1709-AU17-JNC Kryto Run BB C 2 09:15:39.00 1156.627 00:03:24 Hold
99 Hollywood Lou Loft - FL 0056-AU17-LOU Escapade BC C 6 09:17:15.00 1117.460 00:05:00 Yes
100 A P C Loft - TX 17377-AU17-APC Tantric Sleeper SMOK H 2 09:17:45.00 1105.759 00:05:30 Yes

There are 259 bird records

Note: These Race Results are unofficial and subject to change until verified by the Race Committee and declared final.